[[{"header":{"parameterUnit":"m.s-1","parameterCategory":1,"la1":30.2991,"la2":30.254,"lo1":-89.0895,"lo2":-89.0444,"dy":0.0017,"dx":0.0017,"nx":28,"ny":28,"refTime":"2025-05-25T09:00:00:Z","depth":0,"parameterNumber":2,"parameterNumberName":"U-component_of_WINDS"},"data":[0,0,0,0,0,0,0,0,0,0,0,0,0,0,0,0,0,0,0,0,0,0,0,0,0,0,0,0,0,0,0,0,0,0,0,0,0,0,0,0,0,0,0,0,0,0,0,0,0,0,0,0,0,0,0,0,0,0,0.634,0.634,0,0.6413,0.6414,0.6415,0.6421,0.6421,0.642,0.6419,0.6498,0.65,0.6503,0,0,0,0,0,0,0,0,0,0,0,0,0,0.6206,0.6208,0.6339,0.634,0.6341,0.6413,0.6414,0.6415,0.6422,0.6421,0.642,0.6419,0.6497,0.65,0.6503,0,0,0,0,0,0,0,0,0,0,0,0,0,0.627,0.6209,0.6339,0.6353,0.6355,0.6413,0.6414,0.6415,0.6422,0.6421,0.6419,0.6418,0.6496,0.65,0.6504,0.6554,0,0,0.6517,0.6519,0,0,0,0,0,0,0,0,0.6266,0.6275,0.635,0.6352,0.6355,0.6407,0.6396,0.6462,0.6422,0.6397,0.6419,0.6418,0.6469,0.6475,0.6491,0.6557,0.6561,0.6517,0.652,0.6522,0.6523,0,0,0,0,0,0,0,0.6262,0.6272,0.6369,0.6351,0.6354,0.6356,0.6364,0.6408,0.6438,0.6399,0.6399,0.6408,0.647,0.6487,0.6493,0.6562,0.6517,0.6521,0.6523,0.6525,0.6671,0.6672,0,0,0,0,0,0,0.6255,0.6268,0.6366,0.6371,0.6307,0.6359,0.6368,0.6391,0.6438,0.6444,0.6409,0.6408,0.6481,0.6488,0.6496,0.6556,0.6522,0.6526,0.6528,0.667,0.6671,0.6673,0,0,0,0,0,0,0.6252,0.6263,0.6363,0.632,0.6333,0.6363,0.6389,0.6393,0.6411,0.6445,0.6451,0.6421,0.648,0.649,0.6539,0.6559,0.6527,0.6531,0.6668,0.667,0.6672,0.6678,0,0,0,0,0,0,0.6248,0.6262,0.6281,0.632,0.6335,0.6404,0.639,0.6396,0.6418,0.6418,0.6459,0.6464,0.648,0.6532,0.6543,0.6565,0.6535,0.6666,0.6669,0.6671,0.6676,0.668,0.6683,0,0,0,0,0,0.6243,0.6281,0.6282,0.6294,0.6359,0.6406,0.6414,0.643,0.642,0.6439,0.6461,0.6463,0.6555,0.6537,0.6549,0.6572,0.6665,0.6668,0.6671,0.6675,0.6679,0.6683,0,0,0,0,0,0,0.6246,0.6287,0.6288,0.634,0.6369,0.6407,0.6432,0.6435,0.6469,0.6467,0.6486,0.6496,0.6543,0.6563,0.6542,0.6622,0.6609,0.6615,0.6608,0.6612,0.6616,0.661,0.6538,0,0,0,0,0,0.6252,0.6285,0.632,0.6362,0.6376,0.6401,0.6422,0.6432,0.6463,0.6476,0.6501,0.6532,0.6568,0.6592,0.6627,0.6679,0.6688,0.6701,0.6704,0.6707,0.6711,0.6739,0.6745,0.6682,0.6682,0.6682,0,0,0.6266,0.6292,0.6313,0.6363,0.6387,0.6421,0.6412,0.6449,0.6475,0.6482,0.6529,0.6548,0.6584,0.6634,0.6658,0.6652,0.6731,0.6711,0.6713,0.6716,0.6743,0.6749,0.6754,0.6684,0.6684,0.6684,0,0,0.6309,0.6332,0.6369,0.6393,0.6428,0.6444,0.6453,0.649,0.6502,0.6549,0.6555,0.6586,0.6648,0.6672,0.6693,0.6743,0.6746,0.6754,0.6773,0.6799,0.6804,0.6809,0.6825,0.6831,0.6758,0.6758,0.6758,0,0.6322,0.6373,0.6388,0.6425,0.6446,0.6453,0.649,0.6512,0.6558,0.6573,0.6566,0.6641,0.6666,0.6722,0.6733,0.675,0.6761,0.6749,0.6802,0.6807,0.6811,0.6827,0.6834,0.6759,0.6759,0.6759,0.6759,0,0.6387,0.6422,0.6448,0.649,0.6515,0.6551,0.6572,0.6595,0.6602,0.6619,0.6666,0.6696,0.6736,0.675,0.6758,0.6806,0.6801,0.6798,0.6785,0.6817,0.6833,0.6839,0.676,0.676,0.6759,0.6759,0,0,0.6434,0.6482,0.6492,0.651,0.6548,0.6576,0.6613,0.6651,0.667,0.6701,0.6732,0.6783,0.6779,0.6803,0.6813,0.6837,0.6873,0.6831,0.6832,0.6837,0.6926,0.6928,0.6935,0.6875,0.6876,0.6877,0.6923,0,0.6481,0.6545,0.6559,0.6615,0.6647,0.6653,0.6685,0.6712,0.6728,0.6758,0.6777,0.6812,0.6805,0.6819,0.6843,0.6864,0.6891,0.6861,0.6904,0.6905,0.6894,0.6943,0.6946,0.6988,0.6929,0.693,0.6931,0,0.6544,0.6574,0.6632,0.6665,0.6679,0.6707,0.6742,0.6771,0.6802,0.6812,0.6837,0.6845,0.6883,0.6868,0.6921,0.6899,0.6918,0.6931,0.6933,0.6937,0.692,0.6948,0.7001,0.7007,0.6941,0.694,0.6939,0,0.6571,0.6626,0.6668,0.6684,0.6723,0.6743,0.676,0.6789,0.6811,0.6842,0.6855,0.6891,0.691,0.6937,0.6955,0.6942,0.7006,0.6992,0.7015,0.7014,0.7028,0.7027,0.7084,0.7041,0.7041,0.7041,0.7041,0,0.6621,0.6656,0.668,0.6706,0.6746,0.6761,0.68,0.6817,0.6843,0.6872,0.688,0.6907,0.6928,0.6959,0.6973,0.7013,0.7023,0.7032,0.7035,0.7031,0.7029,0.7043,0.704,0.7042,0.7042,0.7042,0.7041,0,0.6658,0.6676,0.6721,0.6754,0.6763,0.679,0.6819,0.6844,0.686,0.6896,0.6906,0.6931,0.6967,0.6986,0.7032,0.7041,0.7087,0.7089,0.7076,0.7077,0.7098,0.7095,0.7165,0.7175,0.7126,0.7127,0.7127,0,0.6688,0.6715,0.675,0.6769,0.6787,0.6818,0.6839,0.6855,0.6877,0.6913,0.6934,0.697,0.6999,0.7056,0.7079,0.7113,0.7116,0.7138,0.7121,0.7115,0.7115,0.7113,0.7115,0.7141,0.7141,0.7142,0.7142,0,0.674,0.6747,0.6776,0.6809,0.6833,0.686,0.6887,0.6902,0.6923,0.6947,0.6982,0.7005,0.705,0.7086,0.7122,0.714,0.7144,0.7147,0.7154,0.7149,0.714,0.7144,0.7083,0.7145,0.7145,0.7145,0.7144,0.7144,0.6774,0.6797,0.6825,0.6857,0.6878,0.6902,0.6927,0.6945,0.6975,0.7012,0.702,0.7057,0.7086,0.7135,0.7154,0.7184,0.718,0.719,0.7192,0.7194,0.7194,0.7136,0.7191,0.719,0.719,0.719,0.719,0,0.6825,0.6842,0.6872,0.6907,0.6933,0.6933,0.6962,0.6983,0.7016,0.7042,0.707,0.7111,0.7144,0.7169,0.7204,0.7223,0.7225,0.7231,0.723,0.7234,0.7197,0.7187,0.7228,0.7228,0.7228,0.7228,0.7228,0.7228,0.6854,0.6893,0.6903,0.6953,0.6971,0.7006,0.7023,0.7045,0.7065,0.711,0.7137,0.7153,0.7178,0.7214,0.7245,0.7251,0.7263,0.7269,0.7275,0.7241,0.7236,0.7233,0.7223,0.7272,0.7272,0.7309,0.731,0.731]},{"header":{"parameterUnit":"m.s-1","parameterCategory":1,"la1":30.2991,"la2":30.254,"lo1":-89.0895,"lo2":-89.0444,"dy":0.0017,"dx":0.0017,"nx":28,"ny":28,"refTime":"2025-05-25T09:00:00:Z","depth":0,"parameterNumber":3,"parameterNumberName":"V-component_of_WINDS"},"data":[0,0,0,0,0,0,0,0,0,0,0,0,0,0,0,0,0,0,0,0,0,0,0,0,0,0,0,0,0,0,0,0,0,0,0,0,0,0,0,0,0,0,0,0,0,0,0,0,0,0,0,0,0,0,0,0,0,0,4.8156,4.8157,0,4.8231,4.8232,4.8233,4.8195,4.8193,4.8191,4.8189,4.826,4.8263,4.8267,0,0,0,0,0,0,0,0,0,0,0,0,0,4.7975,4.7978,4.8156,4.8157,4.8158,4.8231,4.8232,4.8233,4.8195,4.8193,4.819,4.8188,4.8258,4.8263,4.8267,0,0,0,0,0,0,0,0,0,0,0,0,0,4.8052,4.7979,4.8156,4.8148,4.8148,4.8231,4.8232,4.8233,4.8196,4.8193,4.819,4.8187,4.8257,4.8262,4.8268,4.836,0,0,4.8285,4.8287,0,0,0,0,0,0,0,0,4.8047,4.8058,4.8148,4.8149,4.8149,4.8201,4.8194,4.8276,4.8196,4.8178,4.8189,4.8186,4.8242,4.8249,4.8269,4.8364,4.8367,4.8285,4.8289,4.8291,4.8293,0,0,0,0,0,0,0,4.8042,4.8055,4.8186,4.815,4.815,4.8139,4.8147,4.8209,4.8225,4.8179,4.8176,4.8186,4.8242,4.8264,4.827,4.8368,4.8285,4.829,4.8293,4.8296,4.8541,4.8544,0,0,0,0,0,0,4.8038,4.8051,4.8183,4.8188,4.809,4.8145,4.8153,4.8187,4.8224,4.8227,4.8189,4.8184,4.8256,4.8264,4.8273,4.8383,4.8291,4.8296,4.8299,4.8538,4.8542,4.8545,0,0,0,0,0,0,4.8034,4.805,4.818,4.8119,4.8134,4.8151,4.8189,4.819,4.8212,4.8232,4.8234,4.8209,4.8254,4.8265,4.8339,4.8385,4.8299,4.8304,4.8534,4.8539,4.8544,4.8605,0,0,0,0,0,0,4.8029,4.8049,4.8086,4.812,4.8138,4.8248,4.8192,4.8194,4.8222,4.8217,4.8251,4.8254,4.8252,4.8331,4.8345,4.8391,4.8308,4.853,4.8536,4.8542,4.8599,4.8611,4.8622,0,0,0,0,0,4.8023,4.8099,4.8088,4.8104,4.8185,4.825,4.826,4.8259,4.8226,4.8262,4.8275,4.8252,4.8378,4.8339,4.8354,4.8403,4.8527,4.8535,4.8542,4.8594,4.8609,4.8622,0,0,0,0,0,0,4.8068,4.8103,4.8091,4.8181,4.8213,4.8244,4.8289,4.8275,4.8315,4.8309,4.8303,4.8311,4.8388,4.8403,4.8359,4.8494,4.8447,4.8458,4.8482,4.8496,4.8507,4.8502,4.8313,0,0,0,0,0,4.8089,4.8141,4.8168,4.8245,4.8262,4.8273,4.8301,4.8298,4.833,4.8343,4.836,4.8391,4.8437,4.8467,4.8511,4.8601,4.8607,4.8641,4.8653,4.8662,4.8671,4.8719,4.8735,4.8569,4.8569,4.8569,0,0,4.8131,4.8157,4.819,4.8254,4.8279,4.8331,4.8284,4.8342,4.838,4.8351,4.8423,4.8437,4.847,4.8553,4.859,4.8567,4.8719,4.8671,4.8679,4.8683,4.8728,4.8744,4.8758,4.8574,4.8573,4.8572,0,0,4.8236,4.8261,4.8328,4.8353,4.8392,4.8399,4.8415,4.8448,4.8457,4.8529,4.8508,4.8552,4.8632,4.8657,4.8679,4.8793,4.8774,4.8807,4.8867,4.8914,4.8927,4.8939,4.8979,4.8993,4.8816,4.8817,4.8817,0,4.8283,4.8364,4.8363,4.8423,4.8451,4.8429,4.8495,4.8519,4.8569,4.8588,4.8562,4.8662,4.8683,4.877,4.8798,4.8818,4.8835,4.8804,4.8926,4.8937,4.8948,4.8986,4.9001,4.882,4.882,4.882,4.8819,0,4.842,4.8476,4.8525,4.8576,4.861,4.8672,4.8679,4.8713,4.8706,4.8715,4.8788,4.8813,4.8861,4.8881,4.8874,4.8968,4.8953,4.8927,4.888,4.8968,4.9003,4.9018,4.8826,4.8825,4.8823,4.8822,0,0,4.8555,4.8606,4.8623,4.8646,4.8687,4.8729,4.8789,4.8838,4.8867,4.8902,4.8952,4.902,4.8996,4.9022,4.9018,4.9059,4.9147,4.9028,4.9028,4.9049,4.9251,4.927,4.9287,4.9135,4.9137,4.914,4.9248,0,4.8662,4.8772,4.8772,4.8872,4.8923,4.8902,4.8955,4.8984,4.8994,4.9037,4.9047,4.9096,4.9061,4.9077,4.9116,4.9128,4.9188,4.912,4.9179,4.9182,4.9172,4.9306,4.9327,4.9428,4.9262,4.9264,4.9266,0,4.8802,4.8844,4.8949,4.8983,4.9004,4.9052,4.9096,4.9138,4.9171,4.9175,4.9204,4.9194,4.9253,4.9205,4.9287,4.9241,4.9265,4.9274,4.9278,4.9283,4.9229,4.9315,4.946,4.9476,4.9288,4.9286,4.9285,0,4.889,4.8972,4.9046,4.9066,4.9106,4.914,4.9158,4.9188,4.9217,4.9255,4.9274,4.9318,4.9342,4.9375,4.9376,4.9341,4.9458,4.941,4.9462,4.9462,4.9488,4.9486,4.9639,4.9504,4.9503,4.9503,4.9503,0,4.901,4.9075,4.9086,4.9131,4.9203,4.9202,4.9272,4.9287,4.9314,4.936,4.9343,4.9387,4.9385,4.9429,4.9429,4.9496,4.9507,4.9511,4.951,4.9513,4.9512,4.9528,4.9521,4.9507,4.9506,4.9506,4.9505,0,4.912,4.913,4.9209,4.9241,4.9251,4.9302,4.9329,4.9371,4.9379,4.9438,4.9452,4.9465,4.9515,4.9519,4.9576,4.9577,4.9658,4.965,4.9648,4.9646,4.9698,4.9693,4.9867,4.9889,4.9739,4.9741,4.9742,0,4.9195,4.9245,4.9284,4.9315,4.9335,4.9385,4.9415,4.9416,4.9448,4.9488,4.9525,4.9574,4.9614,4.9694,4.9708,4.9751,4.9744,4.9801,4.975,4.9751,4.9744,4.9741,4.9746,4.9811,4.9813,4.9814,4.9815,0,4.9328,4.9331,4.9377,4.9424,4.9462,4.9498,4.9532,4.9558,4.9563,4.9599,4.9651,4.9682,4.9742,4.979,4.9833,4.9849,4.9833,4.9832,4.9846,4.9848,4.9845,4.9847,4.9675,4.9827,4.9826,4.9825,4.9825,4.9824,4.9423,4.9467,4.9501,4.9552,4.9578,4.9611,4.9652,4.9667,4.9711,4.9761,4.9758,4.9816,4.9845,4.9902,4.9921,4.9965,4.9945,4.9966,4.9971,4.9976,4.9982,4.9839,4.9973,4.9972,4.9972,4.9972,4.9971,0,4.9555,4.9576,4.9624,4.9673,4.9713,4.9697,4.9733,4.9767,4.9819,4.9849,4.9889,4.9948,4.9995,5.0013,5.0058,5.0089,5.0083,5.0101,5.0098,5.0102,4.9997,4.998,5.0105,5.0105,5.0105,5.0105,5.0105,5.0105,4.9629,4.9701,4.9708,4.9793,4.9813,4.9871,4.9893,4.9923,4.9947,5.0015,5.0055,5.0066,5.0091,5.0138,5.018,5.0183,5.02,5.0222,5.0222,5.0123,5.011,5.0097,5.0081,5.0226,5.0226,5.0324,5.0325,5.0325]}]]